Location: Il Ritiro
(43.4167°N, 13.1333°E)
Time: 08:09:06
(UTC+00:00)

USA 267 - Pass Details

Date: 05 July 2020
Orbit: 1102 x 1106 km, 123.0° (Epoch: 02 August)

Event Time Altitude Azimuth Distance (km) Brightness Sun altitude
Exits shadow 23:21:18 33° 229° (SW) 1,745 3.9 -23.9°
Maximum altitude 23:21:29 34° 232° (SW) 1,744 4.0 -23.9°
Drops below altitude 10° 23:27:18 10° 295° (WNW) 2,963 5.8 -23.8°
Sets 23:30:05 0° 305° (NW) 3,925 6.6 -23.8°
